Weather History for KHCO - August, 2013

Change the Weather History Date:

Friday, August 2, 2013

  Actual Average Record
Temperature  
Mean Temperature 62 °F -  
Max Temperature 73 °F 81 °F 103 °F (1989)
Min Temperature 51 °F 55 °F 40 °F (1971)
Degree Days  
Heating Degree Days 3    
Growing Degree Days 12 (Base 50)    
Moisture  
Dew Point 53 °F    
Average Humidity 74    
Maximum Humidity 100    
Minimum Humidity 41    
Precipitation  
Precipitation 0.00 in - - ()
Sea Level Pressure  
Sea Level Pressure 30.00 in    
Wind  
Wind Speed 6 mph (NNW)    
Max Wind Speed 13 mph    
Max Gust Speed 18 mph    
Visibility 10 miles    
Events      
Averages and records for this station are not official NWS values.
T = Trace of Precipitation, MM = Missing Value Source: NWS Daily Summary

Daily Weather History Graph

Daily Weather History Graph

Search for Another Location

Airport or City:

Trip Planner

Search our weather history database for the weather conditions in past years. The results will help you decide how hot, cold, wet, or windy it might be!

Date:

Astronomy

Aug. 02, 2013 Rise Set
Actual Time 6:03 AM CDT 9:03 PM CDT
Civil Twilight 5:26 AM CDT 9:40 PM CDT
Nautical Twilight 4:38 AM CDT 10:28 PM CDT
Astronomical Twilight 3:38 AM CDT 11:26 PM CDT
Moon 2:21 AM CDT (8/2) 6:06 PM CDT (8/2)
Length of Visible Light 16h 14m
Length of Day
15h 00m
Waning Crescent, 15% of the Moon is Illuminated
Aug 2
Waning Crescent
Aug 6
New
Aug 14
First Quarter
Aug 20
Full
Aug 28
Last Quarter

Hourly Weather History & Observations

Time (CDT) Temp. Dew Point Humidity Pressure Visibility Wind Dir Wind Speed Gust Speed Precip Events Conditions
12:13 AM 57.2 °F 55.4 °F 94% 29.92 in 10.0 mi NW 3.5 mph - N/A   Clear
12:33 AM 57.2 °F 53.6 °F 88% 29.92 in 10.0 mi NNW 4.6 mph - N/A   Clear
12:53 AM 55.4 °F 53.6 °F 94% 29.92 in 10.0 mi NW 3.5 mph - N/A   Clear
1:13 AM 55.4 °F 53.6 °F 94% 29.92 in 10.0 mi NW 3.5 mph - N/A   Clear
1:33 AM 55.4 °F 53.6 °F 94% 29.93 in 10.0 mi WNW 3.5 mph - N/A   Mostly Cloudy
1:53 AM 53.6 °F 51.8 °F 94% 29.92 in 10.0 mi NNW 3.5 mph - N/A   Scattered Clouds
2:13 AM 53.6 °F 53.6 °F 100% 29.92 in 10.0 mi NNW 3.5 mph - N/A   Mostly Cloudy
2:33 AM 55.4 °F 53.6 °F 94% 29.92 in 10.0 mi Calm Calm - N/A   Scattered Clouds
2:54 AM 53.6 °F 53.6 °F 100% 29.93 in 10.0 mi NW 4.6 mph - N/A   Clear
3:13 AM 53.6 °F 51.8 °F 94% 29.93 in 10.0 mi NW 5.8 mph - N/A   Clear
3:33 AM 51.8 °F 51.8 °F 100% 29.93 in 10.0 mi NW 5.8 mph - N/A   Clear
3:54 AM 53.6 °F 51.8 °F 94% 29.93 in 10.0 mi NNW 5.8 mph - N/A   Clear
4:13 AM 53.6 °F 53.6 °F 100% 29.93 in 10.0 mi NW 5.8 mph - N/A   Clear
4:33 AM 51.8 °F 50.0 °F 94% 29.95 in 10.0 mi NNW 5.8 mph - N/A   Clear
4:54 AM 51.8 °F 51.8 °F 100% 29.94 in 10.0 mi NNW 6.9 mph - N/A   Clear
5:13 AM 51.8 °F 51.8 °F 100% 29.95 in 10.0 mi NNW 6.9 mph - N/A   Clear
5:33 AM 51.8 °F 51.8 °F 100% 29.95 in 10.0 mi NNW 6.9 mph - N/A   Clear
5:53 AM 51.8 °F 51.8 °F 100% 29.95 in 10.0 mi North 5.8 mph - N/A   Clear
6:13 AM 53.6 °F 51.8 °F 94% 29.96 in 10.0 mi North 6.9 mph - N/A   Clear
6:33 AM 53.6 °F 51.8 °F 94% 29.97 in 10.0 mi North 6.9 mph - N/A   Clear
6:53 AM 53.6 °F 51.8 °F 94% 29.97 in 10.0 mi North 5.8 mph - N/A   Clear
7:13 AM 53.6 °F 51.8 °F 94% 29.98 in 10.0 mi North 6.9 mph - N/A   Clear
7:33 AM 55.4 °F 53.6 °F 94% 29.99 in 10.0 mi North 8.1 mph - N/A   Clear
7:53 AM 57.2 °F 55.4 °F 94% 29.99 in 10.0 mi North 6.9 mph - N/A   Clear
8:13 AM 59.0 °F 55.4 °F 88% 29.99 in 10.0 mi North 5.8 mph - N/A   Clear
8:33 AM 60.8 °F 55.4 °F 82% 29.99 in 10.0 mi North 10.4 mph - N/A   Clear
8:53 AM 60.8 °F 55.4 °F 82% 29.99 in 10.0 mi North 11.5 mph - N/A   Clear
9:13 AM 62.6 °F 57.2 °F 82% 29.99 in 10.0 mi North 8.1 mph - N/A   Clear
9:33 AM 64.4 °F 57.2 °F 77% 29.99 in 10.0 mi North 8.1 mph - N/A   Clear
9:53 AM 64.4 °F 57.2 °F 77% 30.00 in 10.0 mi NNW 9.2 mph - N/A   Clear
10:08 AM 66.2 °F 57.2 °F 73% 30.00 in 10.0 mi North 9.2 mph - N/A   Clear
10:33 AM 66.2 °F 55.4 °F 68% 30.01 in 10.0 mi North - - N/A   Clear
10:53 AM 68.0 °F 53.6 °F 60% 30.01 in 10.0 mi North 12.7 mph 16.1 mph N/A   Clear
11:12 AM 68.0 °F 55.4 °F 64% 30.02 in 10.0 mi North 8.1 mph - N/A   Unknown
11:32 AM 69.8 °F 53.6 °F 56% 30.01 in 10.0 mi North 10.4 mph - N/A   Clear
11:53 AM 69.8 °F 53.6 °F 56% 30.01 in 10.0 mi NNW 11.5 mph 17.3 mph N/A   Scattered Clouds
12:13 PM 69.8 °F 53.6 °F 56% 30.00 in 10.0 mi NNW 11.5 mph 16.1 mph N/A   Scattered Clouds
12:33 PM 71.6 °F 53.6 °F 53% 30.01 in 10.0 mi NNW 10.4 mph - N/A   Scattered Clouds
12:53 PM 71.6 °F 53.6 °F 53% 30.00 in 10.0 mi NNW 11.5 mph 18.4 mph N/A   Scattered Clouds
1:13 PM 71.6 °F 53.6 °F 53% 30.00 in 10.0 mi NNW 11.5 mph 18.4 mph N/A   Scattered Clouds
1:33 PM 73.4 °F 53.6 °F 50% 30.00 in 10.0 mi NNE 11.5 mph - N/A   Scattered Clouds
1:53 PM 71.6 °F 51.8 °F 50% 30.00 in 10.0 mi NNW 9.2 mph - N/A   Scattered Clouds
2:13 PM 71.6 °F 51.8 °F 50% 30.00 in 10.0 mi North 10.4 mph - N/A   Clear
2:33 PM 73.4 °F 51.8 °F 47% 30.01 in 10.0 mi NW 9.2 mph - N/A   Clear
2:53 PM 73.4 °F 51.8 °F 47% 30.02 in 10.0 mi NNW 10.4 mph - N/A   Scattered Clouds
3:13 PM 73.4 °F 51.8 °F 47% 30.02 in 10.0 mi NNW 6.9 mph - N/A   Scattered Clouds
3:33 PM 73.4 °F 51.8 °F 47% 30.02 in 10.0 mi North 9.2 mph - N/A   Scattered Clouds
3:53 PM 73.4 °F 48.2 °F 41% 30.02 in 10.0 mi NW 10.4 mph - N/A   Scattered Clouds
4:14 PM 73.4 °F 51.8 °F 47% 30.02 in 10.0 mi NNW 10.4 mph - N/A   Scattered Clouds
4:33 PM 71.6 °F 48.2 °F 43% 30.02 in 10.0 mi NNW 9.2 mph - N/A   Mostly Cloudy
4:53 PM 73.4 °F 51.8 °F 47% 30.02 in 10.0 mi NNW 9.2 mph - N/A   Mostly Cloudy
5:14 PM 71.6 °F 51.8 °F 50% 30.02 in 10.0 mi NNW 9.2 mph - N/A   Overcast
5:33 PM 71.6 °F 48.2 °F 43% 30.02 in 10.0 mi North 10.4 mph - N/A   Scattered Clouds
5:53 PM 71.6 °F 51.8 °F 50% 30.02 in 10.0 mi North 9.2 mph 17.3 mph N/A   Scattered Clouds
6:14 PM 71.6 °F 51.8 °F 50% 30.02 in 10.0 mi North 10.4 mph - N/A   Clear
6:33 PM 71.6 °F 51.8 °F 50% 30.03 in 10.0 mi NNW 9.2 mph - N/A   Scattered Clouds
6:53 PM 71.6 °F 50.0 °F 46% 30.03 in 10.0 mi North 10.4 mph - N/A   Scattered Clouds
7:14 PM 69.8 °F 51.8 °F 53% 30.03 in 10.0 mi NNW 8.1 mph - N/A   Clear
7:33 PM 69.8 °F 51.8 °F 53% 30.03 in 10.0 mi NNW 8.1 mph - N/A   Clear
7:53 PM 66.2 °F 55.4 °F 68% 30.04 in 10.0 mi NW 5.8 mph - N/A   Clear
8:14 PM 66.2 °F 55.4 °F 68% 30.05 in 10.0 mi NNW 5.8 mph - N/A   Clear
8:33 PM 64.4 °F 53.6 °F 68% 30.05 in 10.0 mi North 6.9 mph - N/A   Clear
8:53 PM 62.6 °F 53.6 °F 72% 30.06 in 10.0 mi North 5.8 mph - N/A   Clear
9:13 PM 62.6 °F 53.6 °F 72% 30.06 in 10.0 mi North 5.8 mph - N/A   Clear
9:33 PM 60.8 °F 53.6 °F 77% 30.08 in 10.0 mi NNW 6.9 mph - N/A   Clear
9:53 PM 59.0 °F 53.6 °F 82% 30.08 in 10.0 mi NNW 6.9 mph - N/A   Clear
10:13 PM 59.0 °F 53.6 °F 82% 30.09 in 10.0 mi NNW 5.8 mph - N/A   Clear
10:33 PM 57.2 °F 53.6 °F 88% 30.09 in 10.0 mi NNW 4.6 mph - N/A   Clear
10:53 PM 57.2 °F 51.8 °F 82% 30.10 in 10.0 mi NW 4.6 mph - N/A   Clear
11:13 PM 55.4 °F 51.8 °F 88% 30.11 in 10.0 mi NNW 4.6 mph - N/A   Clear
11:33 PM 55.4 °F 51.8 °F 88% 30.11 in 10.0 mi NW 3.5 mph - N/A   Scattered Clouds
11:53 PM 53.6 °F 51.8 °F 94% 30.11 in 10.0 mi NW 3.5 mph - N/A   Scattered Clouds